Satellite-Ground Cal/Val Region Overpasses Predictions

Prediction of Satellite NPP Overpassing Cal/Val Region: PacNW

Region Location: (Latitude: 10.00, Longitude: 139.50) to (Latitude: 22.70, Longitude: 165.60).

Table of predicted overpasses for the next 14.0 days since TLE Epoch: 8/19/2023
Interval Starting Time Starting Location Ending Time Ending Location
1 08/19/2023 02:28:08 ( 10.43, 162.92) 08/19/2023 02:31:37 ( 22.70, 160.01)
2 08/19/2023 14:59:54 ( 22.68, 160.24) 08/19/2023 15:03:29 ( 10.06, 157.24)
3 08/20/2023 02:11:38 ( 19.35, 165.59) 08/20/2023 02:12:35 ( 22.69, 164.76)
4 08/20/2023 03:50:28 ( 10.01, 142.40) 08/20/2023 03:53:56 ( 22.23, 139.51)
5 08/20/2023 14:40:51 ( 22.69, 164.99) 08/20/2023 14:44:27 ( 10.01, 161.98)
6 08/20/2023 16:22:21 ( 22.68, 139.62) 08/20/2023 16:22:29 ( 22.21, 139.50)
7 08/21/2023 03:31:26 ( 10.01, 147.16) 08/21/2023 03:35:02 ( 22.69, 144.15)
8 08/21/2023 16:03:19 ( 22.69, 144.38) 08/21/2023 16:06:55 ( 10.01, 141.37)
9 08/22/2023 03:12:25 ( 10.06, 151.90) 08/22/2023 03:16:00 ( 22.68, 148.91)
10 08/22/2023 15:44:16 ( 22.69, 149.14) 08/22/2023 15:47:52 ( 10.01, 146.13)
11 08/23/2023 02:53:22 ( 10.05, 156.66) 08/23/2023 02:56:57 ( 22.68, 153.66)
12 08/23/2023 15:25:14 ( 22.70, 153.89) 08/23/2023 15:28:50 ( 10.02, 150.88)
13 08/24/2023 02:34:20 ( 10.05, 161.42) 08/24/2023 02:37:55 ( 22.67, 158.42)
14 08/24/2023 15:06:12 ( 22.65, 158.64) 08/24/2023 15:09:47 ( 10.02, 155.64)
15 08/25/2023 02:16:00 ( 12.57, 165.60) 08/25/2023 02:18:52 ( 22.67, 163.18)
16 08/25/2023 03:56:47 ( 10.05, 140.80) 08/25/2023 03:58:22 ( 15.63, 139.51)
17 08/25/2023 14:47:10 ( 22.65, 163.40) 08/25/2023 14:50:45 ( 10.03, 160.40)
18 08/26/2023 03:37:45 ( 10.05, 145.56) 08/26/2023 03:41:20 ( 22.67, 142.56)
19 08/26/2023 14:31:10 ( 11.91, 165.59) 08/26/2023 14:31:42 ( 10.03, 165.16)
20 08/26/2023 16:09:37 ( 22.64, 142.78) 08/26/2023 16:13:12 ( 10.02, 139.78)
21 08/27/2023 03:18:42 ( 10.05, 150.32) 08/27/2023 03:22:17 ( 22.67, 147.32)
22 08/27/2023 15:50:35 ( 22.65, 147.54) 08/27/2023 15:54:10 ( 10.02, 144.54)
23 08/28/2023 02:59:40 ( 10.05, 155.08) 08/28/2023 03:03:15 ( 22.67, 152.08)
24 08/28/2023 15:31:32 ( 22.65, 152.29) 08/28/2023 15:35:07 ( 10.03, 149.30)
25 08/29/2023 02:40:37 ( 10.05, 159.83) 08/29/2023 02:44:12 ( 22.67, 156.84)
26 08/29/2023 15:12:30 ( 22.65, 157.05) 08/29/2023 15:16:05 ( 10.03, 154.06)
27 08/30/2023 02:21:35 ( 10.05, 164.59) 08/30/2023 02:25:10 ( 22.67, 161.59)
28 08/30/2023 14:53:28 ( 22.65, 161.81) 08/30/2023 14:57:03 ( 10.03, 158.81)
29 08/31/2023 03:44:01 ( 10.00, 143.98) 08/31/2023 03:47:37 ( 22.69, 140.97)
30 08/31/2023 14:35:33 ( 18.66, 165.59) 08/31/2023 14:38:00 ( 10.02, 163.57)
31 08/31/2023 16:15:54 ( 22.69, 141.20) 08/31/2023 16:17:53 ( 15.71, 139.51)
32 09/01/2023 03:24:59 ( 10.00, 148.74) 09/01/2023 03:28:35 ( 22.69, 145.73)
